Brownsville, TX

9:58 PM CST on November 24, 2017 (GMT -0600)
Brownsville-South Padre I International

Weather History for KBRO - November, 2012

Change the Weather History Date:

Friday, November 23, 2012

  Actual Average Record
Temperature  
Mean Temperature 76 °F 67 °F  
Max Temperature 86 °F 77 °F 88 °F (1917)
Min Temperature 65 °F 58 °F 37 °F (1938)
Degree Days  
Heating Degree Days 0 2  
Month to date heating degree days 0 30  
Since 1 July heating degree days 2 34  
Cooling Degree Days 11 5  
Month to date cooling degree days 196 151  
Year to date cooling degree days 4629 3916  
Growing Degree Days 26 (Base 50)    
Moisture  
Dew Point 63 °F    
Average Humidity 69    
Maximum Humidity 93    
Minimum Humidity 44    
Precipitation  
Precipitation 0.02 in 0.05 in 2.50 in (1999)
Month to date precipitation 0.12 1.49  
Year to date precipitation 21.04 25.96  
Sea Level Pressure  
Sea Level Pressure 30.18 in    
Wind  
Wind Speed 7 mph (East)    
Max Wind Speed 17 mph    
Max Gust Speed 26 mph    
Visibility 10 miles    
Events Rain , Thunderstorm    
T = Trace of Precipitation, MM = Missing Value Source: NWS Daily Summary

Daily Weather History Graph

Daily Weather History Graph

Search for Another Location

Airport or City:

Trip Planner

Search our weather history database for the weather conditions in past years. The results will help you decide how hot, cold, wet, or windy it might be!

Date:

Astronomy

Nov. 23, 2012 Rise Set
Actual Time 6:54 AM CST 5:38 PM CST
Civil Twilight 6:29 AM CST 6:03 PM CST
Nautical Twilight 6:01 AM CST 6:31 PM CST
Astronomical Twilight 5:33 AM CST 6:58 PM CST
Moon 2:33 PM CST (11/23) 2:36 AM CST (11/23)
Length of Visible Light 11h 33m
Length of Day
10h 44m
Waxing Gibbous, 80% of the Moon is Illuminated
Nov 23
Waxing Gibbous
Nov 28
Full
Dec 6
Last Quarter
Dec 13
New
Dec 19
First Quarter

Hourly Weather History & Observations

Time (CST) Temp. Heat Index Dew Point Humidity Pressure Visibility Wind Dir Wind Speed Gust Speed Precip Events Conditions
12:53 AM 66.9 °F - 63.0 °F 87% 30.11 in 10.0 mi ESE 5.8 mph - N/A   Clear
1:53 AM 66.9 °F - 63.0 °F 87% 30.11 in 10.0 mi SE 6.9 mph - N/A   Clear
2:53 AM 68.0 °F - 62.1 °F 81% 30.10 in 10.0 mi SE 4.6 mph - N/A   Clear
3:53 AM 68.0 °F - 62.1 °F 81% 30.10 in 10.0 mi ESE 4.6 mph - N/A   Clear
4:53 AM 66.0 °F - 61.0 °F 84% 30.10 in 10.0 mi ESE 3.5 mph - N/A   Clear
5:53 AM 66.9 °F - 62.1 °F 84% 30.12 in 10.0 mi East 4.6 mph - N/A   Mostly Cloudy
6:53 AM 68.0 °F - 63.0 °F 84% 30.14 in 10.0 mi ESE 5.8 mph - N/A   Overcast
7:53 AM 70.0 °F - 64.9 °F 84% 30.17 in 10.0 mi East 4.6 mph - N/A   Mostly Cloudy
8:53 AM 75.9 °F - 64.9 °F 69% 30.19 in 10.0 mi ESE 6.9 mph - N/A   Overcast
9:53 AM 80.1 °F 81.2 °F 62.1 °F 54% 30.20 in 10.0 mi SE 11.5 mph - N/A   Overcast
10:53 AM 81.0 °F 81.7 °F 61.0 °F 50% 30.21 in 10.0 mi SE 8.1 mph - N/A   Overcast
11:53 AM 82.0 °F 82.7 °F 61.0 °F 49% 30.19 in 10.0 mi SSE 11.5 mph - N/A   Mostly Cloudy
12:53 PM 82.9 °F 83.3 °F 61.0 °F 47% 30.17 in 10.0 mi ESE 5.8 mph - N/A   Overcast
1:53 PM 84.0 °F 84.0 °F 60.1 °F 44% 30.15 in 10.0 mi East 10.4 mph - N/A   Mostly Cloudy
2:53 PM 82.0 °F 82.7 °F 61.0 °F 49% 30.14 in 10.0 mi ENE 6.9 mph - N/A   Overcast
3:53 PM 80.1 °F 81.1 °F 61.0 °F 52% 30.13 in 10.0 mi ENE 11.5 mph - N/A   Overcast
4:53 PM 78.1 °F - 60.1 °F 54% 30.15 in 10.0 mi East 8.1 mph - N/A   Overcast
5:53 PM 75.9 °F - 61.0 °F 60% 30.17 in 10.0 mi East 8.1 mph - N/A   Overcast
6:53 PM 75.0 °F - 64.9 °F 71% 30.19 in 10.0 mi ENE 5.8 mph - N/A   Overcast
7:53 PM 73.9 °F - 64.9 °F 73% 30.21 in 10.0 mi ENE 4.6 mph - N/A   Overcast
8:53 PM 73.9 °F - 66.0 °F 76% 30.24 in 10.0 mi North 4.6 mph - N/A   Overcast
9:53 PM 73.0 °F - 68.0 °F 84% 30.26 in 10.0 mi NNW 4.6 mph - 0.00 in Rain Light Rain
10:43 PM 69.8 °F - 66.2 °F 88% 30.26 in 10.0 mi NNW 13.8 mph 24.2 mph 0.00 in Rain Light Rain
10:53 PM 68.0 °F - 66.0 °F 93% 30.26 in 10.0 mi NNW 17.3 mph 26.5 mph 0.00 in Rain Light Rain
11:00 PM 66.2 °F - 64.4 °F 94% 30.26 in 10.0 mi NNW 13.8 mph 26.5 mph 0.00 in Rain Light Rain
11:06 PM 66.2 °F - 64.4 °F 94% 30.26 in 10.0 mi NNW 12.7 mph 21.9 mph 0.00 in Rain , Thunderstorm Light Thunderstorms and Rain
11:25 PM 66.2 °F - 64.4 °F 94% 30.26 in 10.0 mi NW 12.7 mph - 0.01 in Rain Light Rain
11:53 PM 66.0 °F - 63.0 °F 90% 30.25 in 10.0 mi NW 8.1 mph - 0.02 in   Mostly Cloudy